Dewpoint
62 63 63 62 61 60 57 55 53 51 50 52 53 53 53 54 55 55 56 58 59 59 58 58 58 57 57 56 55 55 55 53 53 53 52 51 51 51 50 50 50 50 48
62 62 62 61 60 58 56 54 52 50 50 51 53 53 53 54 55 55 55 56 58 59 58 57 57 57 56 55 55 54 53 53 52 51 51 50 49 49 49 48 48 47 46
62 62 61 60 58 56 54 52 52 50 49 51 52 53 54 54 55 55 55 55 56 58 58 58 57 56 55 55 54 54 53 53 52 51 50 49 49 47 47 47 47 46 44
61 62 61 58 56 54 52 51 51 49 49 51 52 53 53 54 54 54 55 55 55 55 57 58 58 57 56 55 54 54 53 53 52 51 51 49 49 48 47 46 45 45 44
61 62 61 58 56 53 50 52 51 49 49 51 52 53 53 53 54 53 54 54 54 54 54 58 58 58 57 56 55 55 54 53 53 53 52 51 50 48 48 47 46 44 44
62 61 61 58 55 52 50 53 51 51 51 51 51 52 53 53 53 53 53 53 53 54 54 54 55 55 57 57 55 55 55 55 54 53 53 53 51 50 49 48 48 47 46
61 61 60 58 56 49 51 52 51 50 51 51 51 51 52 53 52 53 53 53 53 53 54 54 54 53 54 57 57 55 56 56 55 54 54 53 53 52 51 51 50 49 49
61 61 59 58 58 51 53 51 50 50 50 50 49 48 48 48 50 52 53 53 53 53 53 53 53 53 53 53 54 57 56 57 56 55 54 55 55 54 53 52 52 51 51
59 59 58 58 57 54 52 50 49 49 48 49 49 49 46 46 47 49 52 52 52 53 53 53 53 53 53 53 54 55 55 55 58 58 58 57 56 56 56 54 53 53 53
58 58 58 57 56 55 52 49 49 49 50 48 50 53 51 50 47 46 49 51 52 52 53 53 53 53 53 53 53 53 52 52 54 58 59 59 58 57 57 57 56 55 55
57 58 57 57 56 56 53 51 50 51 51 51 49 51 51 52 51 47 44 48 49 50 52 53 53 53 53 53 53 53 51 51 52 55 57 59 59 59 58 57 57 57 57
53 55 55 55 56 55 54 54 52 52 53 52 52 52 51 51 52 51 49 48 48 49 49 50 51 52 53 54 54 52 51 50 51 53 55 56 58 59 59 59 58 57 56
51 52 52 52 54 54 55 53 54 53 54 53 52 53 53 52 54 53 51 50 50 51 51 51 49 49 50 51 52 51 51 49 49 51 53 54 55 56 57 57 58 57 56
51 51 51 50 51 53 53 53 53 54 53 55 54 54 54 54 54 54 52 51 48 49 50 51 52 50 49 49 49 48 48 47 48 49 50 52 53 54 55 56 56 56 55
51 52 53 51 52 53 55 55 54 53 53 54 54 54 55 55 55 55 55 54 51 46 46 50 52 53 53 52 50 50 49 48 46 47 48 50 51 53 53 53 53 53 52
51 51 53 53 53 53 54 55 54 54 54 54 55 54 55 54 55 55 55 54 54 52 49 50 51 53 54 54 52 51 50 49 47 45 46 47 49 51 51 50 49 49 49
50 50 51 53 54 54 54 54 54 54 54 53 54 54 54 53 54 54 55 55 54 54 51 51 52 52 52 52 53 52 53 52 52 45 45 46 47 47 47 46 46 46 46
49 49 50 51 52 53 53 53 52 52 53 53 53 53 53 53 53 53 54 53 54 54 53 50 51 53 51 51 52 50 49 49 49 46 45 45 45 44 44 43 43 43 43
49 49 49 49 50 51 51 51 52 51 51 53 53 53 52 53 53 53 53 53 53 53 53 53 51 52 53 49 49 49 47 48 48 47 44 43 43 43 43 42 41 40 38
51 50 49 49 49 49 50 50 51 50 51 51 51 52 52 52 53 52 52 53 53 52 52 52 52 53 51 49 49 48 44 45 46 44 43 42 41 42 41 39 38 37 37
52 51 50 49 49 49 49 49 50 49 50 50 50 51 51 50 48 50 52 52 53 52 52 52 52 52 50 42 47 48 49 48 41 39 41 40 40 40 40 39 38 38 37
55 53 51 51 50 49 45 42 46 48 48 48 49 49 50 46 46 44 45 45 49 52 52 52 51 51 50 50 49 48 46 38 39 39 38 37 39 37 38 39 38 37 37
56 55 54 52 51 51 44 42 41 47 47 48 48 49 49 50 46 50 45 42 40 37 38 51 52 52 51 51 49 40 36 36 34 36 35 33 35 35 37 37 38 37 38
55 55 55 55 54 53 45 43 40 46 47 48 49 49 50 50 51 50 50 44 39 36 37 38 41 40 37 38 40 38 35 33 33 33 35 31 32 32 34 35 37 37 37
55 55 55 56 56 55 46 45 44 49 49 50 51 51 52 51 48 44 45 38 33 32 35 35 35 35 35 35 36 35 33 33 30 30 31 31 31 31 32 32 34 35 33
56 56 56 56 52 56 48 44 45 53 52 51 51 41 37 45 44 40 48 39 33 30 30 30 30 30 30 31 31 33 32 30 29 26 28 28 28 28 26 29 30 30 28
Lifted_Index
1 1 1 1 2 3 4 4 4 4 5 5 5 4 4 5 5 5 5 5 5 5 5 5 6 6 7 7 7 7 7 7 7 7 8 9 9 9 10 10 10 11 11
1 1 1 1 2 3 4 5 5 5 5 5 5 4 4 5 5 5 6 5 5 5 5 5 6 6 7 7 7 7 7 7 7 8 8 9 9 10 10 11 11 11 12
1 1 1 2 2 4 5 6 6 6 6 5 5 4 4 5 5 5 6 6 6 5 5 6 6 6 7 7 6 6 6 7 7 7 8 9 10 10 11 11 11 12 12
0 1 1 2 3 5 6 7 7 7 6 5 5 4 4 5 5 6 6 6 6 6 6 6 6 6 6 6 6 6 6 6 6 7 8 8 9 10 11 11 11 11 12
0 1 1 2 4 6 7 7 7 6 5 5 5 4 4 5 5 6 6 6 6 6 6 6 6 6 6 6 5 5 5 5 5 6 7 8 9 10 10 11 11 11 11
1 1 1 2 4 6 7 7 7 6 5 5 5 4 5 5 5 6 6 6 6 6 6 6 6 6 6 5 4 4 4 4 4 5 6 7 8 9 9 10 10 10 10
1 1 1 2 4 6 7 6 6 6 5 5 5 5 5 5 5 5 6 6 6 6 6 6 6 6 5 4 4 3 3 3 3 4 5 6 7 8 8 9 9 9 9
1 1 1 2 4 6 6 6 6 6 5 5 5 5 5 5 4 5 5 4 4 4 5 5 5 5 5 4 3 3 2 2 2 3 4 5 6 6 7 7 8 8 8
1 1 1 2 4 5 5 5 5 5 5 5 5 5 5 5 5 4 4 4 3 3 4 4 4 4 3 3 2 2 2 2 2 2 3 4 5 5 6 6 6 6 7
2 1 1 3 4 5 4 4 5 5 5 5 5 5 5 5 5 5 4 3 3 3 3 3 3 3 2 2 2 2 2 2 2 2 2 3 3 4 4 5 5 5 6
2 2 2 3 4 4 4 4 5 5 5 5 5 5 5 5 5 4 4 4 3 3 3 3 3 2 2 2 2 1 1 2 2 3 3 2 2 3 3 4 4 4 5
3 3 3 3 4 4 4 4 5 5 5 5 5 5 5 5 4 4 4 4 3 3 3 2 2 2 2 2 2 2 2 2 2 2 3 3 3 3 3 3 3 4 4
3 3 3 3 3 3 3 4 5 5 5 5 5 5 5 4 3 3 3 3 3 2 2 2 2 2 2 2 2 2 2 2 2 2 3 3 4 4 3 3 3 4 4
3 3 3 3 4 4 4 4 5 5 5 5 5 5 4 4 3 2 2 2 2 2 2 2 2 2 2 2 2 2 2 2 2 2 3 3 3 4 4 4 4 4 4
3 3 4 4 5 5 5 5 5 5 5 5 4 4 4 3 3 2 2 2 2 2 2 2 2 1 1 2 2 2 2 2 2 2 2 3 3 3 4 4 4 5 5
3 3 4 5 5 5 5 5 5 5 5 4 4 4 3 3 3 2 2 2 2 2 2 2 2 2 2 2 2 2 2 2 2 2 2 3 3 3 3 4 5 5 5
3 3 4 5 5 5 5 5 4 4 4 4 4 4 3 3 3 3 3 3 3 3 3 2 2 2 2 2 2 2 2 2 2 2 3 3 3 3 3 4 5 6 6
2 3 4 4 5 5 5 5 5 4 4 4 4 3 3 3 3 3 3 3 3 3 3 3 2 2 2 2 2 2 2 2 2 2 3 3 3 3 3 4 5 6 7
2 2 3 3 4 4 5 5 5 4 4 4 3 3 3 3 3 3 3 3 3 3 3 3 2 2 2 2 2 2 2 2 2 3 3 3 3 3 3 5 6 7 8
2 2 2 2 3 3 4 4 4 4 4 4 4 3 3 3 3 3 3 3 2 2 2 2 2 2 2 2 2 2 2 2 2 2 2 3 3 3 4 6 7 9 9
1 1 1 2 2 2 2 3 3 4 4 4 4 4 3 3 3 3 3 2 2 2 2 2 2 2 2 1 1 1 1 2 2 2 2 2 3 4 5 7 8 10 10
1 1 1 1 1 1 1 1 1 2 2 3 3 3 3 3 3 3 2 2 2 2 2 1 2 2 1 1 1 1 1 2 2 3 3 3 4 5 7 9 10 11 12
-0 0 0 0 0 0 0 0 -0 0 1 1 2 2 2 3 2 2 2 1 1 1 1 1 1 1 1 1 1 2 2 2 3 4 4 5 6 7 9 11 13 14 14
-1 -1 -1 -1 -0 -0 -0 -0 -0 -0 0 0 1 1 1 1 1 1 1 1 1 1 0 0 0 0 1 1 2 2 2 3 4 5 6 7 8 9 11 13 14 16 17
-1 -1 -1 -1 -1 -1 -1 -1 -1 -0 -0 0 0 0 0 0 -0 -0 -0 0 0 0 0 0 0 0 1 2 3 3 3 4 5 7 8 9 10 11 12 14 16 17 18
-1 -1 -1 -1 -2 -2 -2 -2 -1 -1 -0 -0 -0 0 0 -0 -0 -0 -0 -0 0 0 0 0 0 1 2 3 4 5 5 5 6 8 10 11 11 12 13 14 16 18 19